Taos, NM

9:27 PM MDT on July 23, 2017 (GMT -0600)
Taos Municipal

Weather History for KSKX - September, 2013

Change the Weather History Date:

Tuesday, September 3, 2013

  Actual Average Record
Temperature  
Mean Temperature 66 °F -  
Max Temperature 82 °F 77 °F 86 °F (2012)
Min Temperature 51 °F 44 °F 42 °F (2001)
Cooling Degree Days 2    
Growing Degree Days 16 (Base 50)    
Moisture  
Dew Point 52 °F    
Average Humidity 70    
Maximum Humidity 94    
Minimum Humidity 35    
Precipitation  
Precipitation 0.00 in - - ()
Sea Level Pressure  
Sea Level Pressure 30.36 in    
Wind  
Wind Speed 4 mph (NE)    
Max Wind Speed 26 mph    
Max Gust Speed 33 mph    
Visibility 10 miles    
Events Thunderstorm    
Averages and records for this station are not official NWS values.
T = Trace of Precipitation, MM = Missing Value Source: NWS Daily Summary

Daily Weather History Graph

Daily Weather History Graph

Search for Another Location

Airport or City:

Trip Planner

Search our weather history database for the weather conditions in past years. The results will help you decide how hot, cold, wet, or windy it might be!

Date:

Astronomy

Sep. 03, 2013 Rise Set
Actual Time 6:35 AM MDT 7:27 PM MDT
Civil Twilight 6:09 AM MDT 7:53 PM MDT
Nautical Twilight 5:38 AM MDT 8:24 PM MDT
Astronomical Twilight 5:06 AM MDT 8:56 PM MDT
Moon 4:53 AM MDT (9/3) 6:15 PM MDT (9/3)
Length of Visible Light 13h 44m
Length of Day
12h 51m
Waning Crescent, 3% of the Moon is Illuminated
Sep 3
Waning Crescent
Sep 5
New
Sep 12
First Quarter
Sep 19
Full
Sep 26
Last Quarter

Hourly Weather History & Observations

Time (MDT) Temp. Dew Point Humidity Pressure Visibility Wind Dir Wind Speed Gust Speed Precip Events Conditions
12:15 AM 59.0 °F 53.6 °F 82% 30.36 in 10.0 mi Calm Calm - N/A   Clear
12:35 AM 57.2 °F 53.6 °F 88% 30.37 in 10.0 mi North 3.5 mph - N/A   Clear
12:55 AM 57.2 °F 53.6 °F 88% 30.37 in 10.0 mi North 6.9 mph - N/A   Clear
1:15 AM 55.4 °F 51.8 °F 88% 30.37 in 10.0 mi NNE 5.8 mph - N/A   Clear
1:35 AM 57.2 °F 53.6 °F 88% 30.38 in 10.0 mi East 4.6 mph - N/A   Clear
1:55 AM 57.2 °F 53.6 °F 88% 30.37 in 10.0 mi Calm Calm - N/A   Clear
2:15 AM 57.2 °F 51.8 °F 82% 30.37 in 10.0 mi East 3.5 mph - N/A   Clear
2:35 AM 55.4 °F 51.8 °F 88% 30.37 in 10.0 mi Calm Calm - N/A   Clear
2:55 AM 55.4 °F 51.8 °F 88% 30.37 in 10.0 mi East 3.5 mph - N/A   Clear
3:15 AM 55.4 °F 51.8 °F 88% 30.37 in 10.0 mi Calm Calm - N/A   Clear
3:35 AM 57.2 °F 51.8 °F 82% 30.37 in 10.0 mi Calm Calm - N/A   Clear
3:55 AM 55.4 °F 51.8 °F 88% 30.37 in 10.0 mi NE 4.6 mph - N/A   Clear
4:15 AM 53.6 °F 51.8 °F 94% 30.37 in 10.0 mi Calm Calm - N/A   Clear
4:35 AM 53.6 °F 51.8 °F 94% 30.37 in 10.0 mi NNE 4.6 mph - N/A   Clear
4:55 AM 53.6 °F 51.8 °F 94% 30.37 in 10.0 mi Calm Calm - N/A   Clear
5:15 AM 53.6 °F 51.8 °F 94% 30.37 in 10.0 mi Calm Calm - N/A   Clear
5:35 AM 53.6 °F 51.8 °F 94% 30.37 in 10.0 mi Calm Calm - N/A   Clear
5:55 AM 53.6 °F 50.0 °F 88% 30.37 in 10.0 mi Calm Calm - N/A   Clear
6:15 AM 51.8 °F 50.0 °F 94% 30.38 in 10.0 mi Calm Calm - N/A   Clear
6:35 AM 51.8 °F 50.0 °F 94% 30.38 in 10.0 mi North 4.6 mph - N/A   Clear
6:55 AM 51.8 °F 48.2 °F 88% 30.39 in 10.0 mi North 4.6 mph - N/A   Clear
7:15 AM 53.6 °F 51.8 °F 94% 30.40 in 10.0 mi North 4.6 mph - N/A   Clear
7:35 AM 53.6 °F 51.8 °F 94% 30.40 in 10.0 mi North 5.8 mph - N/A   Clear
7:55 AM 55.4 °F 51.8 °F 88% 30.40 in 10.0 mi North 3.5 mph - N/A   Clear
8:15 AM 57.2 °F 53.6 °F 88% 30.40 in 10.0 mi North 4.6 mph - N/A   Clear
8:35 AM 60.8 °F 53.6 °F 77% 30.40 in 10.0 mi Calm Calm - N/A   Clear
8:55 AM 64.4 °F 53.6 °F 68% 30.40 in 10.0 mi Calm Calm - N/A   Clear
9:15 AM 66.2 °F 55.4 °F 68% 30.40 in 10.0 mi Calm Calm - N/A   Clear
9:35 AM 66.2 °F 55.4 °F 68% 30.40 in 10.0 mi Calm Calm - N/A   Clear
9:55 AM 66.2 °F 55.4 °F 68% 30.41 in 10.0 mi Calm Calm - N/A   Clear
10:15 AM 68.0 °F 53.6 °F 60% 30.40 in 10.0 mi Calm Calm - N/A   Clear
10:35 AM 69.8 °F 53.6 °F 56% 30.40 in 10.0 mi Calm Calm - N/A   Clear
10:55 AM 71.6 °F 51.8 °F 50% 30.39 in 10.0 mi Calm Calm - N/A   Clear
11:15 AM - - N/A% 30.39 in 10.0 mi Calm Calm - N/A   Clear
11:35 AM - - N/A% 30.39 in 10.0 mi Calm Calm - N/A   Clear
11:55 AM 73.4 °F 51.8 °F 47% 30.38 in 10.0 mi Calm Calm - N/A   Clear
12:15 PM - - N/A% 30.37 in 10.0 mi SW 3.5 mph - N/A   Clear
12:35 PM - - N/A% 30.36 in 10.0 mi East 5.8 mph - N/A   Clear
1:35 PM 80.6 °F 51.8 °F 37% 30.32 in 10.0 mi East 4.6 mph - N/A   Unknown
1:55 PM 82.4 °F 51.8 °F 35% 30.32 in 10.0 mi East 4.6 mph - N/A Thunderstorm Clear
2:15 PM 82.4 °F 51.8 °F 35% 30.32 in 10.0 mi ESE 10.4 mph - N/A   Clear
2:35 PM - - N/A% 30.32 in 10.0 mi ENE 26.5 mph 33.4 mph N/A   Mostly Cloudy
2:55 PM 71.6 °F 51.8 °F 50% 30.32 in 10.0 mi ENE 21.9 mph 25.3 mph N/A   Scattered Clouds
3:15 PM 71.6 °F 50.0 °F 46% 30.32 in 10.0 mi East 16.1 mph - N/A Thunderstorm Clear
3:35 PM 71.6 °F 46.4 °F 41% 30.32 in 10.0 mi ESE 15.0 mph 21.9 mph N/A Thunderstorm Clear
3:55 PM 73.4 °F 48.2 °F 41% 30.33 in 10.0 mi SSE 8.1 mph - N/A   Clear
4:15 PM 71.6 °F 48.2 °F 43% 30.32 in 10.0 mi SSE 8.1 mph - N/A   Partly Cloudy
4:35 PM 71.6 °F 51.8 °F 50% 30.32 in 10.0 mi West 8.1 mph - N/A   Partly Cloudy
4:55 PM 73.4 °F 50.0 °F 44% 30.32 in 10.0 mi WNW 5.8 mph - N/A   Clear
5:15 PM 73.4 °F 51.8 °F 47% 30.33 in 10.0 mi Calm Calm - N/A   Clear
5:35 PM 73.4 °F 51.8 °F 47% 30.32 in 10.0 mi Calm Calm - N/A   Clear
5:55 PM 73.4 °F 51.8 °F 47% 30.32 in 10.0 mi North 3.5 mph - N/A   Clear
6:15 PM 73.4 °F 51.8 °F 47% 30.32 in 10.0 mi NE 6.9 mph - N/A   Partly Cloudy
6:35 PM 71.6 °F 51.8 °F 50% 30.32 in 10.0 mi North 5.8 mph - N/A   Clear
6:55 PM 71.6 °F 51.8 °F 50% 30.32 in 10.0 mi North 6.9 mph - N/A   Clear
7:15 PM 69.8 °F 51.8 °F 53% 30.32 in 10.0 mi NNE 4.6 mph - N/A   Clear
7:35 PM 66.2 °F 53.6 °F 64% 30.32 in 10.0 mi NE 6.9 mph - N/A   Clear
7:55 PM 64.4 °F 53.6 °F 68% 30.32 in 10.0 mi NNE 6.9 mph - N/A   Clear
8:15 PM 66.2 °F 53.6 °F 64% 30.32 in 10.0 mi ENE 6.9 mph - N/A   Clear
8:35 PM 64.4 °F 53.6 °F 68% 30.33 in 10.0 mi ENE 8.1 mph - N/A   Clear
8:55 PM 64.4 °F 53.6 °F 68% 30.34 in 10.0 mi East 8.1 mph - N/A   Clear
9:15 PM 62.6 °F 53.6 °F 72% 30.34 in 10.0 mi Calm Calm - N/A   Clear
9:35 PM 62.6 °F 53.6 °F 72% 30.35 in 10.0 mi Calm Calm - N/A   Clear
9:55 PM 60.8 °F 53.6 °F 77% 30.36 in 10.0 mi East 4.6 mph - N/A   Clear
10:15 PM 60.8 °F 51.8 °F 72% 30.36 in 10.0 mi North 4.6 mph - N/A   Clear
10:35 PM 60.8 °F 51.8 °F 72% 30.36 in 10.0 mi NE 6.9 mph - N/A   Clear
10:55 PM 60.8 °F 51.8 °F 72% 30.36 in 10.0 mi ENE 4.6 mph - N/A   Clear
11:15 PM 57.2 °F 51.8 °F 82% 30.37 in 10.0 mi North 5.8 mph - N/A   Clear
11:35 PM 57.2 °F 51.8 °F 82% 30.37 in 10.0 mi North 4.6 mph - N/A   Clear
11:55 PM 57.2 °F 51.8 °F 82% 30.38 in 10.0 mi North 3.5 mph - N/A   Clear